DELTA 4 R/B

Satellite information

Favourite Embed

Satellite Type and Status

ROCKET BODYIN ORBIT

Key statistics

Satellite DELTA 4 R/B at a glance.

Uptime

8154

Days in orbit

Revolutions

≈ 4.5

Per day

Orbit

MEO

Medium Earth Orbit

Inclination

25.3

Latest

Satellite identification and parameters

Extended collection of information and parameters for DELTA 4 R/B.

Object identification

Identified? True

Debris? False

Object name: DELTA 4 R/B

International designator: 2003-008B

Object number (NORAD): 27692

Object ID (CCSDS): 27692

Country: UNITED STATES OF AMERICA (US)

Current information (Y/N): Y

RCS size: LARGE

Orbital parameters

Period: 321.749 minutes

Inclination: 25.326 deg

SMA: 15553.853 km

Apoapsis: 18114.411 km

Periapsis: 237.024 km

RAAN: 315.9203 deg

Eccentricy: 0.5746932

Argument of periapsis: 308.2828 deg

Mean anomaly: 12.6913 deg

Mean motion: 4.47554352 rev/day

Mean motion (dot): 0.00018745 rev/day2

B* drag term: 0.0013461 1/REarth

Two-line elements (TLE)

Creation date: July 6, 2025, 6:05 p.m.

Reference frame: TEME

Reference center: EARTH

Epoch: July 6, 2025, 1:18 p.m. UTC

TLE line 0: 0 DELTA 4 R/B

TLE line 1: 1 27692U 03008B 25187.55483554 .00018745 00000-0 13461-2 0 9991

TLE line 2: 2 27692 25.3260 315.9203 5746932 308.2828 12.6913 4.47554352 85707

Live tracking on map

Real-time ground track for satellite DELTA 4 R/B.

In-orbit conjunctions

There are no conjunctions computed for DELTA 4 R/B, at the moment. Check back to stay up to date, as we update our databases every day.

Go to all conjunctions

Associated space launch

The U.S. Air Force Space Command operates 10 Phase III DSCS satellites providing defense officials and battlefield commanders secure voice and high rate data communications. The DSCS III system also transmits space operations and early warning data to various systems and users.

DELTA 4 R/B was lifted into orbit during the mission ‘Delta IV M | DSCS III A-3’, on board a Delta IV M space rocket.

The launch took place on March 11, 2003, 12:59 a.m. from Space Launch Complex 37B.

For more information about the launch, click the button.

Launch to space Delta IV M | DSCS III A-3
Delta IV M | DSCS III A-3

Agency: N/A

Status: Launch Successful

Launch date: March 11, 2003, 12:59 a.m. UTC

Rocket: Delta IV M

Launch pad: Space Launch Complex 37B

Location: Cape Canaveral SFS, FL, USA

...

Latest news about this satellite

There are no fresh news available about this satellite. Check back as we update our databases every day.


Newsletter sign-up

Weekly statistics, charts and insights to help you stay on top of the space industry.